Location: Unspecified
(0.0000°N, 0.0000°E)
Time: 09:39:16
(UTC+00:00)

PCSat - Pass Details

Date: 11 December 2017
Orbit: 785 x 795 km, 67.1° (Epoch: 20 April)

Event Time Altitude Azimuth Distance (km) Brightness Sun altitude
Rises 18:19:05 0° 208° (SSW) 3,275 13.7 -5.9°
Reaches altitude 10° 18:21:33 10° 212° (SSW) 2,343 13.0 -6.5°
Maximum altitude 18:26:48 56° 289° (WNW) 928 10.3 -7.7°
Drops below altitude 10° 18:32:01 10° 7° (N) 2,331 11.7 -8.9°
Sets 18:34:28 0° 11° (NNE) 3,256 12.4 -9.4°
